When you browse on this site, cookies collect data to enhance your experience and personalize the content and advertising you see.
Visit our Privacy Policy to learn more. By continuing to use the site, you agree to this use of cookies and data.
  • în România
  • Lista ţărilor
  • Pe 7 zile
  • Temperatura apei
  • Meteo pe hartă
  • Widget-uri
  • user-avatar
    Intrare

    Meteo pe oră la Thessaloniki

    Astăzi, 20 Septembrie, Vineri

    Timp Temperatura Precipitaţii Vânt Presiune Umiditate
    00:00 +20°C° 0.8 mm 3 m/s 759 mmHg 79%
    01:00 +20°C° 0.8 mm 4 m/s 759 mmHg 79%
    02:00 +19°C° 0.8 mm 4 m/s 759 mmHg 78%
    03:00 +17°C° 0.6 mm 5 m/s 759 mmHg 78%
    04:00 +16°C° 0.6 mm 5 m/s 759 mmHg 77%
    05:00 +16°C° 0.6 mm 6 m/s 759 mmHg 77%
    06:00 +15°C° 0.9 mm 6 m/s 759 mmHg 80%
    07:00 +14°C° 0.9 mm 6 m/s 759 mmHg 82%
    08:00 +14°C° 0.9 mm 6 m/s 760 mmHg 84%
    09:00 +14°C° 0.9 mm 5 m/s 760 mmHg 80%
    10:00 +15°C° 0.9 mm 5 m/s 760 mmHg 75%
    11:00 +15°C° 0.9 mm 4 m/s 760 mmHg 70%
    12:00 +18°C° 0.1 mm 4 m/s 760 mmHg 63%
    13:00 +19°C° 0.1 mm 3 m/s 760 mmHg 55%
    14:00 +21°C° 0.1 mm 3 m/s 760 mmHg 48%
    15:00 +21°C° 0 mm 3 m/s 760 mmHg 47%
    16:00 +21°C° 0 mm 3 m/s 760 mmHg 46%
    17:00 +22°C° 0 mm 3 m/s 760 mmHg 45%
    18:00 +20°C° 0 mm 2 m/s 761 mmHg 55%
    19:00 +19°C° 0 mm 2 m/s 762 mmHg 64%
    20:00 +17°C° 0 mm 2 m/s 762 mmHg 74%
    21:00 +17°C° 0 mm 2 m/s 762 mmHg 76%
    22:00 +17°C° 0 mm 2 m/s 763 mmHg 78%
    23:00 +16°C° 0 mm 1 m/s 763 mmHg 80%

    Mâine, 21 Septembrie, Sâmbătă

    Timp Temperatura Precipitaţii Vânt Presiune Umiditate
    00:00 +16°C° 0 mm 1 m/s 763 mmHg 78%
    01:00 +16°C° 0 mm 1 m/s 763 mmHg 76%
    02:00 +16°C° 0 mm 1 m/s 764 mmHg 73%
    03:00 +16°C° 0 mm 1 m/s 764 mmHg 73%
    04:00 +15°C° 0 mm 1 m/s 764 mmHg 72%
    05:00 +15°C° 0 mm 2 m/s 764 mmHg 72%
    06:00 +16°C° 0 mm 2 m/s 764 mmHg 67%
    07:00 +16°C° 0 mm 2 m/s 764 mmHg 63%
    08:00 +17°C° 0 mm 2 m/s 764 mmHg 59%
    09:00 +18°C° 0 mm 2 m/s 764 mmHg 54%
    10:00 +21°C° 0 mm 1 m/s 764 mmHg 50%
    11:00 +22°C° 0 mm 1 m/s 765 mmHg 46%
    12:00 +23°C° 0 mm 2 m/s 764 mmHg 45%
    13:00 +23°C° 0 mm 2 m/s 764 mmHg 43%
    14:00 +24°C° 0 mm 3 m/s 763 mmHg 42%
    15:00 +24°C° 0 mm 3 m/s 763 mmHg 44%
    16:00 +22°C° 0 mm 3 m/s 763 mmHg 45%
    17:00 +22°C° 0 mm 3 m/s 763 mmHg 46%
    18:00 +21°C° 0 mm 3 m/s 763 mmHg 51%
    19:00 +19°C° 0 mm 2 m/s 763 mmHg 55%
    20:00 +18°C° 0 mm 2 m/s 763 mmHg 60%
    21:00 +19°C° 0 mm 1 m/s 763 mmHg 61%
    22:00 +19°C° 0 mm 1 m/s 763 mmHg 62%
    23:00 +18°C° 0 mm 1 m/s 763 mmHg 63%

    Poimâine, 22 Septembrie, Duminică

    Timp Temperatura Precipitaţii Vânt Presiune Umiditate
    00:00 +18°C° 0 mm 1 m/s 763 mmHg 63%
    01:00 +18°C° 0 mm 1 m/s 763 mmHg 64%
    02:00 +16°C° 0 mm 1 m/s 763 mmHg 65%
    03:00 +16°C° 0 mm 1 m/s 763 mmHg 66%
    04:00 +16°C° 0 mm 1 m/s 763 mmHg 67%
    05:00 +16°C° 0 mm 1 m/s 763 mmHg 68%
    06:00 +16°C° 0 mm 1 m/s 763 mmHg 66%
    07:00 +18°C° 0 mm 1 m/s 763 mmHg 63%
    08:00 +19°C° 0 mm 1 m/s 763 mmHg 60%
    09:00 +21°C° 0 mm 1 m/s 763 mmHg 54%
    10:00 +21°C° 0 mm 2 m/s 763 mmHg 49%
    11:00 +24°C° 0 mm 2 m/s 762 mmHg 43%
    12:00 +24°C° 0 mm 2 m/s 762 mmHg 42%
    13:00 +25°C° 0 mm 3 m/s 761 mmHg 41%
    14:00 +26°C° 0 mm 3 m/s 761 mmHg 40%
    15:00 +25°C° 0 mm 3 m/s 760 mmHg 41%
    16:00 +25°C° 0 mm 3 m/s 760 mmHg 43%
    17:00 +25°C° 0 mm 3 m/s 759 mmHg 44%
    18:00 +22°C° 0 mm 3 m/s 760 mmHg 51%
    19:00 +21°C° 0 mm 2 m/s 760 mmHg 57%
    20:00 +19°C° 0 mm 2 m/s 760 mmHg 63%
    21:00 +19°C° 0 mm 2 m/s 760 mmHg 65%
    22:00 +20°C° 0 mm 1 m/s 760 mmHg 67%
    23:00 +19°C° 0 mm 1 m/s 760 mmHg 69%

    23 Septembrie, Luni

    Timp Temperatura Precipitaţii Vânt Presiune Umiditate
    00:00 +19°C° 0 mm 1 m/s 760 mmHg 70%
    01:00 +19°C° 0 mm 1 m/s 760 mmHg 70%
    02:00 +17°C° 0 mm 0 m/s 760 mmHg 71%
    03:00 +18°C° 0 mm 1 m/s 760 mmHg 71%
    04:00 +18°C° 0 mm 1 m/s 760 mmHg 71%
    05:00 +18°C° 0 mm 1 m/s 760 mmHg 71%
    06:00 +19°C° 0 mm 1 m/s 759 mmHg 67%
    07:00 +20°C° 0 mm 1 m/s 759 mmHg 64%
    08:00 +21°C° 0 mm 1 m/s 759 mmHg 60%
    09:00 +22°C° 0 mm 1 m/s 759 mmHg 55%
    10:00 +24°C° 0 mm 2 m/s 759 mmHg 51%
    11:00 +25°C° 0 mm 2 m/s 759 mmHg 46%
    12:00 +26°C° 0 mm 3 m/s 758 mmHg 45%
    13:00 +26°C° 0 mm 3 m/s 758 mmHg 44%
    14:00 +27°C° 0 mm 4 m/s 757 mmHg 43%
    15:00 +26°C° 0 mm 3 m/s 757 mmHg 44%
    16:00 +26°C° 0 mm 3 m/s 757 mmHg 46%
    17:00 +26°C° 0 mm 3 m/s 756 mmHg 47%
    18:00 +25°C° 0 mm 2 m/s 756 mmHg 52%
    19:00 +23°C° 0 mm 2 m/s 756 mmHg 57%
    20:00 +21°C° 0 mm 2 m/s 756 mmHg 63%
    21:00 +21°C° 0 mm 2 m/s 756 mmHg 64%
    22:00 +21°C° 0 mm 1 m/s 756 mmHg 65%
    23:00 +21°C° 0 mm 1 m/s 756 mmHg 66%

    24 Septembrie, Marţi

    Timp Temperatura Precipitaţii Vânt Presiune Umiditate
    00:00 +21°C° 0 mm 1 m/s 756 mmHg 66%
    01:00 +21°C° 0 mm 1 m/s 755 mmHg 67%
    02:00 +21°C° 0 mm 1 m/s 755 mmHg 67%
    03:00 +20°C° 0.1 mm 1 m/s 755 mmHg 69%
    04:00 +20°C° 0.1 mm 1 m/s 754 mmHg 70%
    05:00 +20°C° 0.1 mm 1 m/s 754 mmHg 72%
    06:00 +20°C° 1.3 mm 1 m/s 753 mmHg 75%
    07:00 +19°C° 1.3 mm 2 m/s 753 mmHg 77%
    08:00 +19°C° 1.3 mm 2 m/s 753 mmHg 80%
    09:00 +20°C° 1 mm 2 m/s 753 mmHg 78%
    10:00 +21°C° 1 mm 2 m/s 753 mmHg 77%
    11:00 +21°C° 1 mm 2 m/s 753 mmHg 75%
    12:00 +23°C° 0 mm 2 m/s 753 mmHg 74%
    13:00 +24°C° 0 mm 2 m/s 752 mmHg 73%
    14:00 +24°C° 0 mm 2 m/s 751 mmHg 71%
    15:00 +24°C° 0 mm 2 m/s 751 mmHg 70%
    16:00 +25°C° 0 mm 2 m/s 751 mmHg 69%
    17:00 +25°C° 0 mm 2 m/s 750 mmHg 68%
    18:00 +24°C° 0.9 mm 2 m/s 751 mmHg 74%
    19:00 +23°C° 0.9 mm 2 m/s 751 mmHg 80%
    20:00 +22°C° 0.9 mm 1 m/s 751 mmHg 87%
    21:00 +20°C° 1.5 mm 2 m/s 751 mmHg 84%
    22:00 +20°C° 1.5 mm 2 m/s 751 mmHg 82%
    23:00 +20°C° 1.5 mm 3 m/s 751 mmHg 80%

    25 Septembrie, Miercuri

    Timp Temperatura Precipitaţii Vânt Presiune Umiditate
    00:00 +20°C° 0.3 mm 3 m/s 752 mmHg 79%
    01:00 +19°C° 0.3 mm 3 m/s 752 mmHg 79%
    02:00 +19°C° 0.3 mm 3 m/s 752 mmHg 78%
    03:00 +19°C° 0 mm 3 m/s 752 mmHg 78%
    04:00 +19°C° 0 mm 4 m/s 752 mmHg 77%
    05:00 +19°C° 0 mm 4 m/s 752 mmHg 77%
    06:00 +19°C° 0 mm 4 m/s 752 mmHg 75%
    07:00 +19°C° 0 mm 4 m/s 753 mmHg 72%
    08:00 +19°C° 0 mm 4 m/s 753 mmHg 69%
    09:00 +20°C° 0 mm 4 m/s 753 mmHg 64%
    10:00 +22°C° 0 mm 4 m/s 754 mmHg 60%
    11:00 +23°C° 0 mm 4 m/s 754 mmHg 55%
    12:00 +25°C° 0 mm 4 m/s 754 mmHg 50%
    13:00 +26°C° 0 mm 3 m/s 754 mmHg 46%
    14:00 +28°C° 0 mm 3 m/s 754 mmHg 42%
    15:00 +28°C° 0 mm 3 m/s 754 mmHg 41%
    16:00 +28°C° 0 mm 2 m/s 753 mmHg 41%
    17:00 +28°C° 0 mm 2 m/s 753 mmHg 40%
    18:00 +26°C° 0 mm 2 m/s 754 mmHg 45%
    19:00 +25°C° 0 mm 1 m/s 754 mmHg 51%
    20:00 +23°C° 0 mm 1 m/s 755 mmHg 56%
    21:00 +23°C° 0 mm 1 m/s 755 mmHg 57%
    22:00 +22°C° 0 mm 1 m/s 755 mmHg 58%
    23:00 +22°C° 0 mm 1 m/s 756 mmHg 60%
    Arată mai mult